Year,Month,Day,Hour,Minute,Value (Times are PST for temperature in C)
2014,08,09,00,00,16.00
2014,08,09,00,01,16.00
2014,08,09,00,02,16.00
2014,08,09,00,03,16.00
2014,08,09,00,04,15.90
2014,08,09,00,05,15.90
2014,08,09,00,06,15.90
2014,08,09,00,07,15.90
2014,08,09,00,08,15.90
2014,08,09,00,09,15.90
2014,08,09,00,10,15.90
2014,08,09,00,11,15.90
2014,08,09,00,12,15.90
2014,08,09,00,13,15.90
2014,08,09,00,14,15.90
2014,08,09,00,15,15.90
2014,08,09,00,16,15.80
2014,08,09,00,18,15.80
2014,08,09,00,19,15.80
2014,08,09,00,20,15.80
2014,08,09,00,21,15.80
2014,08,09,00,22,15.80
2014,08,09,00,23,15.80
2014,08,09,00,24,15.80
2014,08,09,00,25,15.80
2014,08,09,00,26,15.80
2014,08,09,00,27,15.80
2014,08,09,00,28,15.70
2014,08,09,00,29,15.70
2014,08,09,00,30,15.70
2014,08,09,00,31,15.70
2014,08,09,00,32,15.70
2014,08,09,00,33,15.70
2014,08,09,00,34,15.70
2014,08,09,00,35,15.70
2014,08,09,00,36,15.70
2014,08,09,00,37,15.70
2014,08,09,00,38,15.70
2014,08,09,00,39,15.70
2014,08,09,00,40,15.70
2014,08,09,00,41,15.70
2014,08,09,00,42,15.70
2014,08,09,00,43,15.70
2014,08,09,00,44,15.70
2014,08,09,00,45,15.70
2014,08,09,00,46,15.70
2014,08,09,00,47,15.60
2014,08,09,00,48,15.60
2014,08,09,00,49,15.60
2014,08,09,00,50,15.60
2014,08,09,00,51,15.60
2014,08,09,00,52,15.60
2014,08,09,00,53,15.60
2014,08,09,00,54,15.60
2014,08,09,00,55,15.60
2014,08,09,00,56,15.50
2014,08,09,00,57,15.50
2014,08,09,00,58,15.50
2014,08,09,00,59,15.40
2014,08,09,01,00,15.40
2014,08,09,01,01,15.40
2014,08,09,01,02,15.40
2014,08,09,01,03,15.40
2014,08,09,01,04,15.40
2014,08,09,01,05,15.40
2014,08,09,01,06,15.30
2014,08,09,01,07,15.30
2014,08,09,01,08,15.30
2014,08,09,01,09,15.30
2014,08,09,01,10,15.30
2014,08,09,01,11,15.30
2014,08,09,01,12,15.30
2014,08,09,01,13,15.30
2014,08,09,01,14,15.20
2014,08,09,01,15,15.20
2014,08,09,01,16,15.20
2014,08,09,01,17,15.20
2014,08,09,01,18,15.20
2014,08,09,01,19,15.20
2014,08,09,01,20,15.10
2014,08,09,01,21,15.10
2014,08,09,01,22,15.10
2014,08,09,01,23,15.10
2014,08,09,01,24,15.10
2014,08,09,01,25,15.00
2014,08,09,01,26,15.00
2014,08,09,01,27,15.00
2014,08,09,01,28,15.00
2014,08,09,01,29,14.90
2014,08,09,01,30,14.90
2014,08,09,01,31,14.90
2014,08,09,01,32,14.90
2014,08,09,01,33,14.90
2014,08,09,01,34,14.90
2014,08,09,01,35,14.90
2014,08,09,01,36,14.90
2014,08,09,01,37,14.90
2014,08,09,01,38,14.90
2014,08,09,01,39,14.90
2014,08,09,01,40,14.90
2014,08,09,01,41,14.90
2014,08,09,01,42,14.90
2014,08,09,01,43,14.90
2014,08,09,01,44,14.90
2014,08,09,01,45,14.80
2014,08,09,01,46,14.80
2014,08,09,01,47,14.80
2014,08,09,01,48,14.80
2014,08,09,01,49,14.80
2014,08,09,01,50,14.80
2014,08,09,01,51,14.80
2014,08,09,01,52,14.80
2014,08,09,01,53,14.80
2014,08,09,01,54,14.70
2014,08,09,01,55,14.70
2014,08,09,01,56,14.70
2014,08,09,01,57,14.70
2014,08,09,01,58,14.70
2014,08,09,01,59,14.70
2014,08,09,02,00,14.70
2014,08,09,02,01,14.70
2014,08,09,02,02,14.70
2014,08,09,02,03,14.70
2014,08,09,02,04,14.60
2014,08,09,02,05,14.60
2014,08,09,02,06,14.60
2014,08,09,02,07,14.60
2014,08,09,02,08,14.60
2014,08,09,02,09,14.60
2014,08,09,02,10,14.60
2014,08,09,02,11,14.60
2014,08,09,02,12,14.60
2014,08,09,02,13,14.50
2014,08,09,02,14,14.50
2014,08,09,02,15,14.50
2014,08,09,02,16,14.50
2014,08,09,02,17,14.50
2014,08,09,02,18,14.40
2014,08,09,02,19,14.50
2014,08,09,02,20,14.40
2014,08,09,02,21,14.40
2014,08,09,02,22,14.40
2014,08,09,02,23,14.40
2014,08,09,02,24,14.40
2014,08,09,02,25,14.40
2014,08,09,02,26,14.40
2014,08,09,02,27,14.30
2014,08,09,02,28,14.30
2014,08,09,02,29,14.30
2014,08,09,02,30,14.30
2014,08,09,02,31,14.30
2014,08,09,02,32,14.30
2014,08,09,02,33,14.30
2014,08,09,02,34,14.30
2014,08,09,02,35,14.30
2014,08,09,02,36,14.20
2014,08,09,02,37,14.20
2014,08,09,02,38,14.20
2014,08,09,02,39,14.20
2014,08,09,02,40,14.20
2014,08,09,02,41,14.20
2014,08,09,02,42,14.20
2014,08,09,02,43,14.20
2014,08,09,02,44,14.20
2014,08,09,02,45,14.20
2014,08,09,02,46,14.20
2014,08,09,02,47,14.20
2014,08,09,02,48,14.20
2014,08,09,02,49,14.10
2014,08,09,02,50,14.10
2014,08,09,02,51,14.10
2014,08,09,02,52,14.10
2014,08,09,02,53,14.00
2014,08,09,02,54,14.00
2014,08,09,02,55,14.00
2014,08,09,02,56,13.90
2014,08,09,02,57,13.90
2014,08,09,02,58,13.90
2014,08,09,02,59,13.90
2014,08,09,03,00,13.90
2014,08,09,03,01,13.80
2014,08,09,03,02,13.80
2014,08,09,03,03,13.80
2014,08,09,03,04,13.80
2014,08,09,03,05,13.80
2014,08,09,03,06,13.80
2014,08,09,03,07,13.80
2014,08,09,03,08,13.80
2014,08,09,03,09,13.70
2014,08,09,03,10,13.70
2014,08,09,03,11,13.70
2014,08,09,03,12,13.70
2014,08,09,03,13,13.70
2014,08,09,03,14,13.70
2014,08,09,03,15,13.70
2014,08,09,03,16,13.70
2014,08,09,03,17,13.60
2014,08,09,03,18,13.60
2014,08,09,03,19,13.60
2014,08,09,03,20,13.60
2014,08,09,03,21,13.60
2014,08,09,03,23,13.50
2014,08,09,03,24,13.50
2014,08,09,03,25,13.50
2014,08,09,03,26,13.40
2014,08,09,03,27,13.40
2014,08,09,03,28,13.40
2014,08,09,03,29,13.40
2014,08,09,03,30,13.40
2014,08,09,03,31,13.40
2014,08,09,03,32,13.40
2014,08,09,03,33,13.40
2014,08,09,03,34,13.40
2014,08,09,03,35,13.40
2014,08,09,03,36,13.40
2014,08,09,03,37,13.40
2014,08,09,03,38,13.40
2014,08,09,03,39,13.40
2014,08,09,03,40,13.30
2014,08,09,03,41,13.30
2014,08,09,03,42,13.30
2014,08,09,03,43,13.30
2014,08,09,03,44,13.30
2014,08,09,03,45,13.30
2014,08,09,03,46,13.30
2014,08,09,03,47,13.30
2014,08,09,03,48,13.30
2014,08,09,03,49,13.30
2014,08,09,03,50,13.30
2014,08,09,03,51,13.30
2014,08,09,03,52,13.30
2014,08,09,03,53,13.30
2014,08,09,03,54,13.30
2014,08,09,03,55,13.30
2014,08,09,03,56,13.30
2014,08,09,03,57,13.30
2014,08,09,03,58,13.30
2014,08,09,03,59,13.30
2014,08,09,04,00,13.20
2014,08,09,04,01,13.20
2014,08,09,04,02,13.20
2014,08,09,04,03,13.20
2014,08,09,04,04,13.20
2014,08,09,04,05,13.20
2014,08,09,04,06,13.20
2014,08,09,04,07,13.20
2014,08,09,04,08,13.10
2014,08,09,04,09,13.10
2014,08,09,04,10,13.10
2014,08,09,04,11,13.10
2014,08,09,04,12,13.10
2014,08,09,04,13,13.10
2014,08,09,04,14,13.00
2014,08,09,04,15,13.00
2014,08,09,04,16,12.90
2014,08,09,04,17,12.90
2014,08,09,04,18,12.90
2014,08,09,04,19,12.90
2014,08,09,04,20,12.90
2014,08,09,04,21,12.90
2014,08,09,04,22,12.90
2014,08,09,04,23,12.90
2014,08,09,04,24,12.90
2014,08,09,04,25,12.90
2014,08,09,04,26,12.80
2014,08,09,04,27,12.80
2014,08,09,04,28,12.80
2014,08,09,04,29,12.80
2014,08,09,04,30,12.80
2014,08,09,04,31,12.80
2014,08,09,04,32,12.80
2014,08,09,04,33,12.80
2014,08,09,04,34,12.80
2014,08,09,04,35,12.80
2014,08,09,04,36,12.70
2014,08,09,04,37,12.70
2014,08,09,04,38,12.70
2014,08,09,04,39,12.70
2014,08,09,04,40,12.70
2014,08,09,04,41,12.70
2014,08,09,04,42,12.60
2014,08,09,04,43,12.60
2014,08,09,04,44,12.60
2014,08,09,04,45,12.60
2014,08,09,04,46,12.60
2014,08,09,04,47,12.60
2014,08,09,04,48,12.60
2014,08,09,04,49,12.60
2014,08,09,04,50,12.60
2014,08,09,04,51,12.50
2014,08,09,04,52,12.50
2014,08,09,04,53,12.50
2014,08,09,04,54,12.50
2014,08,09,04,55,12.50
2014,08,09,04,56,12.50
2014,08,09,04,57,12.40
2014,08,09,04,58,12.40
2014,08,09,04,59,12.40
2014,08,09,05,00,12.40
2014,08,09,05,01,12.40
2014,08,09,05,02,12.40
2014,08,09,05,03,12.40
2014,08,09,05,04,12.40
2014,08,09,05,05,12.40
2014,08,09,05,06,12.40
2014,08,09,05,07,12.40
2014,08,09,05,08,12.40
2014,08,09,05,09,12.30
2014,08,09,05,10,12.30
2014,08,09,05,11,12.30
2014,08,09,05,12,12.30
2014,08,09,05,13,12.30
2014,08,09,05,14,12.30
2014,08,09,05,15,12.30
2014,08,09,05,16,12.30
2014,08,09,05,17,12.30
2014,08,09,05,18,12.30
2014,08,09,05,19,12.30
2014,08,09,05,20,12.30
2014,08,09,05,21,12.30
2014,08,09,05,22,12.20
2014,08,09,05,23,12.20
2014,08,09,05,24,12.20
2014,08,09,05,25,12.20
2014,08,09,05,26,12.20
2014,08,09,05,27,12.20
2014,08,09,05,28,12.20
2014,08,09,05,29,12.20
2014,08,09,05,30,12.20
2014,08,09,05,31,12.20
2014,08,09,05,32,12.20
2014,08,09,05,33,12.20
2014,08,09,05,34,12.20
2014,08,09,05,35,12.20
2014,08,09,05,36,12.20
2014,08,09,05,37,12.20
2014,08,09,05,38,12.20
2014,08,09,05,39,12.20
2014,08,09,05,40,12.20
2014,08,09,05,41,12.20
2014,08,09,05,42,12.20
2014,08,09,05,43,12.20
2014,08,09,05,44,12.20
2014,08,09,05,45,12.20
2014,08,09,05,46,12.20
2014,08,09,05,47,12.20
2014,08,09,05,48,12.20
2014,08,09,05,49,12.20
2014,08,09,05,50,12.20
2014,08,09,05,51,12.20
2014,08,09,05,52,12.20
2014,08,09,05,53,12.20
2014,08,09,05,54,12.20
2014,08,09,05,55,12.20
2014,08,09,05,56,12.20
2014,08,09,05,57,12.20
2014,08,09,05,58,12.20
2014,08,09,05,59,12.20
2014,08,09,06,00,12.20
2014,08,09,06,01,12.20
2014,08,09,06,02,12.20
2014,08,09,06,03,12.20
2014,08,09,06,04,12.20
2014,08,09,06,05,12.20
2014,08,09,06,06,12.20
2014,08,09,06,07,12.20
2014,08,09,06,08,12.20
2014,08,09,06,09,12.20
2014,08,09,06,10,12.20
2014,08,09,06,11,12.20
2014,08,09,06,12,12.20
2014,08,09,06,13,12.20
2014,08,09,06,14,12.10
2014,08,09,06,15,12.10
2014,08,09,06,16,12.10
2014,08,09,06,17,12.10
2014,08,09,06,18,12.10
2014,08,09,06,19,12.10
2014,08,09,06,20,12.10
2014,08,09,06,21,12.10
2014,08,09,06,22,12.10
2014,08,09,06,23,12.10
2014,08,09,06,24,12.10
2014,08,09,06,25,12.10
2014,08,09,06,26,12.10
2014,08,09,06,27,12.10
2014,08,09,06,28,12.20
2014,08,09,06,29,12.20
2014,08,09,06,30,12.20
2014,08,09,06,31,12.20
2014,08,09,06,32,12.20
2014,08,09,06,33,12.20
2014,08,09,06,34,12.20
2014,08,09,06,35,12.20
2014,08,09,06,36,12.20
2014,08,09,06,37,12.20
2014,08,09,06,38,12.20
2014,08,09,06,39,12.20
2014,08,09,06,40,12.20
2014,08,09,06,41,12.30
2014,08,09,06,42,12.30
2014,08,09,06,43,12.30
2014,08,09,06,44,12.30
2014,08,09,06,45,12.30
2014,08,09,06,46,12.30
2014,08,09,06,47,12.30
2014,08,09,06,48,12.30
2014,08,09,06,49,12.30
2014,08,09,06,50,12.40
2014,08,09,06,51,12.40
2014,08,09,06,52,12.40
2014,08,09,06,53,12.40
2014,08,09,06,54,12.40
2014,08,09,06,55,12.50
2014,08,09,06,56,12.50
2014,08,09,06,57,12.60
2014,08,09,06,58,12.60
2014,08,09,06,59,12.60
2014,08,09,07,00,12.70
2014,08,09,07,01,12.70
2014,08,09,07,02,12.80
2014,08,09,07,03,12.80
2014,08,09,07,04,12.90
2014,08,09,07,05,12.90
2014,08,09,07,06,13.00
2014,08,09,07,07,13.10
2014,08,09,07,08,13.10
2014,08,09,07,09,13.10
2014,08,09,07,10,13.10
2014,08,09,07,11,13.20
2014,08,09,07,12,13.20
2014,08,09,07,13,13.20
2014,08,09,07,14,13.30
2014,08,09,07,15,13.30
2014,08,09,07,16,13.30
2014,08,09,07,17,13.40
2014,08,09,07,18,13.40
2014,08,09,07,19,13.40
2014,08,09,07,20,13.50
2014,08,09,07,21,13.60
2014,08,09,07,22,13.60
2014,08,09,07,23,13.60
2014,08,09,07,24,13.70
2014,08,09,07,25,13.70
2014,08,09,07,26,13.70
2014,08,09,07,27,13.80
2014,08,09,07,28,13.80
2014,08,09,07,29,13.80
2014,08,09,07,30,13.80
2014,08,09,07,31,13.90
2014,08,09,07,32,13.90
2014,08,09,07,33,14.00
2014,08,09,07,34,14.10
2014,08,09,07,35,14.20
2014,08,09,07,36,14.20
2014,08,09,07,37,14.20
2014,08,09,07,38,14.30
2014,08,09,07,39,14.30
2014,08,09,07,40,14.30
2014,08,09,07,41,14.30
2014,08,09,07,42,14.30
2014,08,09,07,43,14.40
2014,08,09,07,44,14.30
2014,08,09,07,45,14.40
2014,08,09,07,46,14.40
2014,08,09,07,47,14.40
2014,08,09,07,48,14.40
2014,08,09,07,49,14.40
2014,08,09,07,50,14.40
2014,08,09,07,51,14.50
2014,08,09,07,52,14.50
2014,08,09,07,53,14.60
2014,08,09,07,54,14.60
2014,08,09,07,55,14.60
2014,08,09,07,56,14.70
2014,08,09,07,57,14.70
2014,08,09,07,58,14.80
2014,08,09,07,59,14.80
2014,08,09,08,00,14.80
2014,08,09,08,01,14.80
2014,08,09,08,02,14.90
2014,08,09,08,03,14.90
2014,08,09,08,05,15.10
2014,08,09,08,06,15.10
2014,08,09,08,07,15.20
2014,08,09,08,08,15.20
2014,08,09,08,09,15.30
2014,08,09,08,10,15.30
2014,08,09,08,11,15.40
2014,08,09,08,12,15.50
2014,08,09,08,13,15.60
2014,08,09,08,14,15.60
2014,08,09,08,15,15.70
2014,08,09,08,16,15.80
2014,08,09,08,17,15.80
2014,08,09,08,18,15.90
2014,08,09,08,19,15.90
2014,08,09,08,20,16.00
2014,08,09,08,21,16.10
2014,08,09,08,22,16.10
2014,08,09,08,23,16.10
2014,08,09,08,24,16.20
2014,08,09,08,25,16.20
2014,08,09,08,26,16.30
2014,08,09,08,27,16.30
2014,08,09,08,28,16.40
2014,08,09,08,29,16.40
2014,08,09,08,30,16.40
2014,08,09,08,31,16.50
2014,08,09,08,32,16.50
2014,08,09,08,33,16.60
2014,08,09,08,34,16.60
2014,08,09,08,35,16.70
2014,08,09,08,36,16.70
2014,08,09,08,37,16.80
2014,08,09,08,38,16.80
2014,08,09,08,39,16.90
2014,08,09,08,40,16.90
2014,08,09,08,41,16.90
2014,08,09,08,42,16.90
2014,08,09,08,43,17.00
2014,08,09,08,44,17.00
2014,08,09,08,45,17.00
2014,08,09,08,46,17.00
2014,08,09,08,47,17.10
2014,08,09,08,48,17.10
2014,08,09,08,49,17.10
2014,08,09,08,50,17.20
2014,08,09,08,51,17.20
2014,08,09,08,52,17.20
2014,08,09,08,53,17.20
2014,08,09,08,54,17.20
2014,08,09,08,55,17.30
2014,08,09,08,56,17.30
2014,08,09,08,57,17.40
2014,08,09,08,58,17.40
2014,08,09,08,59,17.50
2014,08,09,09,00,17.60
2014,08,09,09,01,17.70
2014,08,09,09,02,17.70
2014,08,09,09,03,17.70
2014,08,09,09,04,17.80
2014,08,09,09,05,17.80
2014,08,09,09,06,17.90
2014,08,09,09,07,17.80
2014,08,09,09,08,17.80
2014,08,09,09,09,17.80
2014,08,09,09,10,17.80
2014,08,09,09,11,17.70
2014,08,09,09,12,17.70
2014,08,09,09,13,17.60
2014,08,09,09,14,17.60
2014,08,09,09,15,17.60
2014,08,09,09,16,17.60
2014,08,09,09,17,17.60
2014,08,09,09,18,17.60
2014,08,09,09,19,17.60
2014,08,09,09,20,17.70
2014,08,09,09,21,17.60
2014,08,09,09,22,17.60
2014,08,09,09,23,17.60
2014,08,09,09,24,17.60
2014,08,09,09,25,17.60
2014,08,09,09,26,17.60
2014,08,09,09,27,17.60
2014,08,09,09,28,17.70
2014,08,09,09,29,17.70
2014,08,09,09,30,17.80
2014,08,09,09,31,17.80
2014,08,09,09,33,17.90
2014,08,09,09,34,17.90
2014,08,09,09,35,18.00
2014,08,09,09,36,18.10
2014,08,09,09,37,18.10
2014,08,09,09,38,18.20
2014,08,09,09,39,18.20
2014,08,09,09,40,18.30
2014,08,09,09,41,18.40
2014,08,09,09,42,18.50
2014,08,09,09,43,18.60
2014,08,09,09,44,18.70
2014,08,09,09,45,18.70
2014,08,09,09,46,18.80
2014,08,09,09,48,19.00
2014,08,09,09,49,19.10
2014,08,09,09,50,19.20
2014,08,09,09,51,19.20
2014,08,09,09,52,19.30
2014,08,09,09,53,19.30
2014,08,09,09,54,19.30
2014,08,09,09,55,19.30
2014,08,09,09,56,19.30
2014,08,09,09,57,19.30
2014,08,09,09,58,19.30
2014,08,09,10,00,19.30
2014,08,09,10,01,19.30
2014,08,09,10,02,19.40
2014,08,09,10,03,19.40
2014,08,09,10,04,19.40
2014,08,09,10,05,19.60
2014,08,09,10,06,19.60
2014,08,09,10,07,19.70
2014,08,09,10,08,19.70
2014,08,09,10,09,19.70
2014,08,09,10,10,19.70
2014,08,09,10,11,19.70
2014,08,09,10,12,19.70
2014,08,09,10,13,19.60
2014,08,09,10,14,19.60
2014,08,09,10,15,19.60
2014,08,09,10,16,19.60
2014,08,09,10,17,19.60
2014,08,09,10,18,19.60
2014,08,09,10,19,19.70
2014,08,09,10,20,19.60
2014,08,09,10,21,19.60
2014,08,09,10,22,19.60
2014,08,09,10,23,19.70
2014,08,09,10,24,19.70
2014,08,09,10,25,19.70
2014,08,09,10,26,19.80
2014,08,09,10,27,19.80
2014,08,09,10,28,19.90
2014,08,09,10,29,20.00
2014,08,09,10,30,20.10
2014,08,09,10,31,20.20
2014,08,09,10,32,20.30
2014,08,09,10,33,20.40
2014,08,09,10,34,20.50
2014,08,09,10,35,20.60
2014,08,09,10,36,20.80
2014,08,09,10,37,20.90
2014,08,09,10,38,21.00
2014,08,09,10,39,21.10
2014,08,09,10,40,21.20
2014,08,09,10,41,21.20
2014,08,09,10,42,21.30
2014,08,09,10,43,21.30
2014,08,09,10,44,21.40
2014,08,09,10,45,21.50
2014,08,09,10,46,21.60
2014,08,09,10,47,21.60
2014,08,09,10,48,21.70
2014,08,09,10,49,21.70
2014,08,09,10,50,21.70
2014,08,09,10,51,21.70
2014,08,09,10,52,21.70
2014,08,09,10,53,21.80
2014,08,09,10,54,21.80
2014,08,09,10,55,21.80
2014,08,09,10,56,21.80
2014,08,09,10,57,21.80
2014,08,09,10,58,21.90
2014,08,09,10,59,21.90
2014,08,09,11,00,21.90
2014,08,09,11,01,21.90
2014,08,09,11,02,21.80
2014,08,09,11,03,21.70
2014,08,09,11,04,21.70
2014,08,09,11,05,21.70
2014,08,09,11,06,21.70
2014,08,09,11,07,21.70
2014,08,09,11,08,21.70
2014,08,09,11,09,21.70
2014,08,09,11,10,21.80
2014,08,09,11,11,21.90
2014,08,09,11,12,22.10
2014,08,09,11,13,22.20
2014,08,09,11,14,22.20
2014,08,09,11,15,22.30
2014,08,09,11,16,22.40
2014,08,09,11,17,22.40
2014,08,09,11,18,22.40
2014,08,09,11,19,22.50
2014,08,09,11,20,22.60
2014,08,09,11,21,22.60
2014,08,09,11,22,22.60
2014,08,09,11,23,22.60
2014,08,09,11,24,22.60
2014,08,09,11,25,22.60
2014,08,09,11,26,22.70
2014,08,09,11,27,22.70
2014,08,09,11,28,22.70
2014,08,09,11,29,22.70
2014,08,09,11,30,22.70
2014,08,09,11,31,22.70
2014,08,09,11,32,22.70
2014,08,09,11,33,22.80
2014,08,09,11,34,22.80
2014,08,09,11,35,22.80
2014,08,09,11,36,22.80
2014,08,09,11,37,22.80
2014,08,09,11,38,22.90
2014,08,09,11,39,22.90
2014,08,09,11,40,22.90
2014,08,09,11,41,23.00
2014,08,09,11,42,23.10
2014,08,09,11,43,23.20
2014,08,09,11,44,23.30
2014,08,09,11,45,23.40
2014,08,09,11,46,23.40
2014,08,09,11,47,23.40
2014,08,09,11,48,23.40
2014,08,09,11,49,23.40
2014,08,09,11,50,23.40
2014,08,09,11,51,23.40
2014,08,09,11,52,23.40
2014,08,09,11,53,23.60
2014,08,09,11,54,23.60
2014,08,09,11,55,23.70
2014,08,09,11,56,23.70
2014,08,09,11,57,23.80
2014,08,09,11,58,24.00
2014,08,09,11,59,24.10
2014,08,09,12,00,24.10
2014,08,09,12,01,24.10
2014,08,09,12,02,24.10
2014,08,09,12,03,24.10
2014,08,09,12,04,24.10
2014,08,09,12,05,24.20
2014,08,09,12,06,24.20
2014,08,09,12,07,24.30
2014,08,09,12,08,24.30
2014,08,09,12,09,24.30
2014,08,09,12,10,24.40
2014,08,09,12,11,24.50
2014,08,09,12,12,24.60
2014,08,09,12,13,24.80
2014,08,09,12,14,24.90
2014,08,09,12,15,25.10
2014,08,09,12,16,25.20
2014,08,09,12,17,25.20
2014,08,09,12,18,25.30
2014,08,09,12,19,25.40
2014,08,09,12,20,25.40
2014,08,09,12,21,25.60
2014,08,09,12,22,25.70
2014,08,09,12,23,25.80
2014,08,09,12,24,25.90
2014,08,09,12,25,25.90
2014,08,09,12,26,26.00
2014,08,09,12,27,26.00
2014,08,09,12,28,25.90
2014,08,09,12,29,25.90
2014,08,09,12,30,25.90
2014,08,09,12,31,25.80
2014,08,09,12,32,25.80
2014,08,09,12,33,25.80
2014,08,09,12,34,25.70
2014,08,09,12,35,25.70
2014,08,09,12,36,25.60
2014,08,09,12,37,25.60
2014,08,09,12,38,25.60
2014,08,09,12,39,25.60
2014,08,09,12,40,25.60
2014,08,09,12,41,25.70
2014,08,09,12,43,25.80
2014,08,09,12,44,25.80
2014,08,09,12,45,25.80
2014,08,09,12,46,25.90
2014,08,09,12,47,26.00
2014,08,09,12,48,26.10
2014,08,09,12,49,26.10
2014,08,09,12,50,26.10
2014,08,09,12,51,26.20
2014,08,09,12,52,26.20
2014,08,09,12,53,26.30
2014,08,09,12,54,26.30
2014,08,09,12,55,26.30
2014,08,09,12,56,26.40
2014,08,09,12,57,26.40
2014,08,09,12,58,26.40
2014,08,09,12,59,26.30
2014,08,09,13,00,26.20
2014,08,09,13,01,26.10
2014,08,09,13,02,25.90
2014,08,09,13,03,25.90
2014,08,09,13,04,25.80
2014,08,09,13,05,25.80
2014,08,09,13,06,25.80
2014,08,09,13,07,25.80
2014,08,09,13,08,25.90
2014,08,09,13,09,26.00
2014,08,09,13,10,26.10
2014,08,09,13,11,26.10
2014,08,09,13,12,26.20
2014,08,09,13,13,26.30
2014,08,09,13,14,26.40
2014,08,09,13,15,26.50
2014,08,09,13,16,26.60
2014,08,09,13,17,26.70
2014,08,09,13,18,26.80
2014,08,09,13,19,26.90
2014,08,09,13,20,27.00
2014,08,09,13,21,27.10
2014,08,09,13,22,27.20
2014,08,09,13,23,27.20
2014,08,09,13,24,27.30
2014,08,09,13,25,27.30
2014,08,09,13,26,27.30
2014,08,09,13,27,27.40
2014,08,09,13,28,27.40
2014,08,09,13,29,27.40
2014,08,09,13,30,27.30
2014,08,09,13,31,27.30
2014,08,09,13,32,27.20
2014,08,09,13,33,27.20
2014,08,09,13,34,27.10
2014,08,09,13,35,27.10
2014,08,09,13,36,27.10
2014,08,09,13,37,27.10
2014,08,09,13,38,27.10
2014,08,09,13,39,27.10
2014,08,09,13,40,27.10
2014,08,09,13,41,27.10
2014,08,09,13,42,27.10
2014,08,09,13,43,27.10
2014,08,09,13,44,27.10
2014,08,09,13,45,27.10
2014,08,09,13,46,27.20
2014,08,09,13,47,27.20
2014,08,09,13,48,27.20
2014,08,09,13,49,27.30
2014,08,09,13,50,27.30
2014,08,09,13,51,27.40
2014,08,09,13,52,27.50
2014,08,09,13,53,27.60
2014,08,09,13,54,27.70
2014,08,09,13,55,27.70
2014,08,09,13,56,27.70
2014,08,09,13,57,27.70
2014,08,09,13,58,27.70
2014,08,09,13,59,27.70
2014,08,09,14,00,27.60
2014,08,09,14,01,27.50
2014,08,09,14,02,27.40
2014,08,09,14,03,27.40
2014,08,09,14,04,27.40
2014,08,09,14,05,27.50
2014,08,09,14,06,27.40
2014,08,09,14,07,27.40
2014,08,09,14,08,27.40
2014,08,09,14,09,27.40
2014,08,09,14,10,27.40
2014,08,09,14,11,27.60
2014,08,09,14,12,27.60
2014,08,09,14,13,27.70
2014,08,09,14,14,27.70
2014,08,09,14,15,27.80
2014,08,09,14,16,27.80
2014,08,09,14,17,27.80
2014,08,09,14,18,27.80
2014,08,09,14,19,27.80
2014,08,09,14,20,27.90
2014,08,09,14,21,27.90
2014,08,09,14,22,28.10
2014,08,09,14,23,28.20
2014,08,09,14,24,28.30
2014,08,09,14,25,28.30
2014,08,09,14,26,28.30
2014,08,09,14,27,28.30
2014,08,09,14,28,28.20
2014,08,09,14,29,28.30
2014,08,09,14,30,28.30
2014,08,09,14,31,28.40
2014,08,09,14,32,28.40
2014,08,09,14,33,28.40
2014,08,09,14,34,28.30
2014,08,09,14,35,28.30
2014,08,09,14,36,28.30
2014,08,09,14,37,28.20
2014,08,09,14,38,28.10
2014,08,09,14,39,28.00
2014,08,09,14,40,27.90
2014,08,09,14,41,27.90
2014,08,09,14,42,27.90
2014,08,09,14,43,27.90
2014,08,09,14,44,27.90
2014,08,09,14,45,28.00
2014,08,09,14,46,28.00
2014,08,09,14,47,28.00
2014,08,09,14,48,28.00
2014,08,09,14,49,28.00
2014,08,09,14,50,28.10
2014,08,09,14,51,28.10
2014,08,09,14,52,28.10
2014,08,09,14,53,28.00
2014,08,09,14,54,27.90
2014,08,09,14,55,27.90
2014,08,09,14,56,27.80
2014,08,09,14,57,27.70
2014,08,09,14,58,27.60
2014,08,09,14,59,27.60
2014,08,09,15,00,27.60
2014,08,09,15,01,27.60
2014,08,09,15,02,27.60
2014,08,09,15,03,27.50
2014,08,09,15,04,27.40
2014,08,09,15,05,27.50
2014,08,09,15,06,27.60
2014,08,09,15,07,27.60
2014,08,09,15,08,27.70
2014,08,09,15,09,27.70
2014,08,09,15,10,27.70
2014,08,09,15,11,27.70
2014,08,09,15,12,27.80
2014,08,09,15,13,27.80
2014,08,09,15,14,27.80
2014,08,09,15,15,27.80
2014,08,09,15,16,27.80
2014,08,09,15,17,27.80
2014,08,09,15,18,27.80
2014,08,09,15,19,27.80
2014,08,09,15,20,27.80
2014,08,09,15,21,27.80
2014,08,09,15,22,27.80
2014,08,09,15,23,27.80
2014,08,09,15,24,27.80
2014,08,09,15,25,27.80
2014,08,09,15,26,27.70
2014,08,09,15,27,27.70
2014,08,09,15,28,27.60
2014,08,09,15,29,27.60
2014,08,09,15,31,27.70
2014,08,09,15,32,27.60
2014,08,09,15,33,27.60
2014,08,09,15,34,27.60
2014,08,09,15,35,27.60
2014,08,09,15,36,27.70
2014,08,09,15,37,27.70
2014,08,09,15,38,27.70
2014,08,09,15,39,27.70
2014,08,09,15,40,27.70
2014,08,09,15,41,27.70
2014,08,09,15,42,27.70
2014,08,09,15,43,27.70
2014,08,09,15,44,27.80
2014,08,09,15,45,27.80
2014,08,09,15,46,27.80
2014,08,09,15,47,27.90
2014,08,09,15,48,27.80
2014,08,09,15,49,27.80
2014,08,09,15,50,27.80
2014,08,09,15,51,27.80
2014,08,09,15,52,27.90
2014,08,09,15,53,27.90
2014,08,09,15,54,28.10
2014,08,09,15,55,28.10
2014,08,09,15,56,28.10
2014,08,09,15,57,28.10
2014,08,09,15,58,28.10
2014,08,09,15,59,28.10
2014,08,09,16,00,28.10
2014,08,09,16,01,28.10
2014,08,09,16,02,28.10
2014,08,09,16,03,28.10
2014,08,09,16,04,28.10
2014,08,09,16,05,28.10
2014,08,09,16,06,28.10
2014,08,09,16,07,28.10
2014,08,09,16,08,28.10
2014,08,09,16,09,28.10
2014,08,09,16,10,28.10
2014,08,09,16,11,28.10
2014,08,09,16,12,28.10
2014,08,09,16,13,28.10
2014,08,09,16,14,28.10
2014,08,09,16,15,28.10
2014,08,09,16,16,28.10
2014,08,09,16,17,28.10
2014,08,09,16,18,28.20
2014,08,09,16,19,28.20
2014,08,09,16,20,28.20
2014,08,09,16,21,28.20
2014,08,09,16,22,28.20
2014,08,09,16,23,28.20
2014,08,09,16,24,28.10
2014,08,09,16,25,28.10
2014,08,09,16,26,28.10
2014,08,09,16,27,28.00
2014,08,09,16,28,28.00
2014,08,09,16,29,27.90
2014,08,09,16,31,27.80
2014,08,09,16,32,27.80
2014,08,09,16,33,27.70
2014,08,09,16,34,27.70
2014,08,09,16,35,27.70
2014,08,09,16,36,27.70
2014,08,09,16,37,27.70
2014,08,09,16,38,27.60
2014,08,09,16,39,27.60
2014,08,09,16,40,27.60
2014,08,09,16,41,27.60
2014,08,09,16,42,27.60
2014,08,09,16,43,27.60
2014,08,09,16,44,27.60
2014,08,09,16,45,27.60
2014,08,09,16,46,27.60
2014,08,09,16,47,27.60
2014,08,09,16,48,27.60
2014,08,09,16,49,27.60
2014,08,09,16,50,27.60
2014,08,09,16,52,27.70
2014,08,09,16,53,27.70
2014,08,09,16,54,27.80
2014,08,09,16,55,27.80
2014,08,09,16,56,27.80
2014,08,09,16,57,27.80
2014,08,09,16,58,27.80
2014,08,09,16,59,27.80
2014,08,09,17,00,27.80
2014,08,09,17,01,27.80
2014,08,09,17,02,27.80
2014,08,09,17,03,27.80
2014,08,09,17,04,27.80
2014,08,09,17,05,27.80
2014,08,09,17,06,27.80
2014,08,09,17,07,27.70
2014,08,09,17,08,27.70
2014,08,09,17,09,27.70
2014,08,09,17,10,27.70
2014,08,09,17,11,27.70
2014,08,09,17,12,27.70
2014,08,09,17,13,27.70
2014,08,09,17,14,27.70
2014,08,09,17,15,27.80
2014,08,09,17,16,27.80
2014,08,09,17,17,27.80
2014,08,09,17,18,27.80
2014,08,09,17,19,27.80
2014,08,09,17,20,27.70
2014,08,09,17,21,27.70
2014,08,09,17,22,27.70
2014,08,09,17,23,27.60
2014,08,09,17,24,27.60
2014,08,09,17,25,27.60
2014,08,09,17,26,27.60
2014,08,09,17,27,27.60
2014,08,09,17,28,27.60
2014,08,09,17,29,27.50